Flag for U.S.A. Weather past 2 weeks in Aurora, Illinois, U.S.A.

Now
77 °F

Sunny.


Feels Like: 78 °F
Forecast: 57 / 81 °F
Wind: 8 mph from West

Location: Dupage Airport

Current Time: Aug 4, 2015 at 11:39:27 AM

Latest Report: Aug 4, 2015 at 10:52 AM


Visibility: 10 mi

Pressure: 29.97 "Hg

Humidity: 45%

Dew point: 54 °F

Location of AuroraLocation

Historic Weather in Aurora — Graph

°F

Aurora temperature yesterday

Maximum temperature yesterday: 80 °F (at 2:52 PM)
Minimum temperature yesterday: 65 °F (at 4:52 AM)
Average temperature yesterday: 72 °F

Past Weeks' High & Low Weather Summary

 TemperatureHumidityPressure
High91 °F (Aug 2, 1:52 PM)94% (Jul 26, 4:52 AM)30.06 "Hg (Jul 26, 4:52 AM)
Low58 °F (Aug 4, 4:52 AM)28% (Jul 31, 5:52 PM)29.63 "Hg (Aug 2, 8:52 PM)
Average75 °F65%29.93 "Hg
* Reported Jul 20 9:52 AM — Aug 4 9:52 AM, Aurora, Weather by CustomWeather, © 2015

Note: Actual official high and low records may vary slightly from our data, if they occured in-between our weather recording intervals... More about our weather records

Advertising

Aurora weather history for previous 24 hours

 ConditionsComfort  
Time TempWeatherWind HumidityBarometerVisibility
9:52 AM
Tue, Aug 4
75 °FSunny.10 mph50%29.97 "Hg10 mi
8:52 AM71 °FSunny.3 mph59%29.96 "Hg10 mi
7:52 AM65 °FSunny.3 mph78%29.96 "Hg10 mi
6:52 AM60 °FSunny.No wind86%29.95 "Hg10 mi
5:52 AM58 °FClear.No wind90%29.93 "Hg10 mi
4:52 AM58 °FClear.No wind90%29.92 "Hg10 mi
3:52 AM59 °FClear.No wind87%29.91 "Hg10 mi
2:52 AM60 °FClear.No wind83%29.90 "Hg10 mi
1:52 AM63 °FClear.No wind75%29.90 "Hg10 mi
12:52 AM63 °FClear.No wind75%29.90 "Hg10 mi
11:52 PM
Mon, Aug 3
66 °FClear.6 mph68%29.90 "Hg10 mi
10:52 PM67 °FClear.6 mph68%29.90 "Hg10 mi
9:52 PM67 °FClear.5 mph68%29.90 "Hg10 mi
8:52 PM70 °FSunny.5 mph57%29.87 "Hg10 mi
7:52 PM73 °FSunny.5 mph48%29.85 "Hg10 mi
6:52 PM77 °FSunny.7 mph40%29.85 "Hg10 mi
5:52 PM79 °FSunny.13 mph35%29.85 "Hg10 mi
4:52 PM79 °FSunny.14 mph38%29.85 "Hg10 mi
3:52 PM80 °FSunny.10 mph34%29.85 "Hg10 mi
2:52 PM80 °FSunny.10 mph31%29.85 "Hg10 mi
1:52 PM79 °FSunny.12 mph34%29.86 "Hg10 mi
12:52 PM79 °FSunny.15 mph35%29.86 "Hg10 mi
11:52 AM77 °FSunny.12 mph48%29.86 "Hg10 mi
Weather by CustomWeather, © 2015

See weather overviewHow to use our weather pages